period_start,C,m1,H,J0,J1,J2,J3,J4,J5,JA,JB,JC,JD,JJ,JK,JN,#
2017-04-29 00:03:45,0.07,3.67,0.00,22.34,26.11,30.02,14.58,49.50,1014.70,2032.59,2267.02,2239.98,2537.12,599.89,596.15,42.66,0000 0000 0000 0000 000000
2017-04-29 00:08:46,0.00,3.67,0.00,22.39,26.12,30.00,14.55,49.38,1014.69,2032.37,2266.99,2239.57,2537.00,599.92,596.00,42.71,0000 0000 0000 0000 000000
2017-04-29 00:13:48,0.02,3.68,0.00,22.39,26.12,29.92,14.59,49.41,1014.68,2032.32,2266.70,2239.07,2536.98,600.04,596.18,42.76,0000 0000 0000 0000 000000
2017-04-29 00:18:49,0.05,3.68,0.00,22.38,26.13,29.95,14.63,49.53,1014.69,2032.51,2266.10,2239.00,2536.50,600.32,596.48,42.81,0000 0000 0000 0000 000000
2017-04-29 00:23:50,-0.00,3.68,0.00,22.39,26.15,30.00,14.55,49.34,1014.70,2032.44,2266.00,2239.00,2536.02,600.07,596.10,42.86,0000 0000 0000 0000 000000
2017-04-29 00:28:51,0.00,3.68,0.00,22.41,26.15,29.97,14.57,49.46,1014.69,2032.30,2265.74,2238.90,2536.00,600.05,596.17,42.91,0000 0000 0000 0000 000000
2017-04-29 00:33:53,0.03,3.68,0.00,22.41,26.15,30.00,14.55,49.39,1014.73,2032.14,2265.06,2238.31,2535.86,599.76,595.90,42.96,0000 0000 0000 0000 000000
2017-04-29 00:38:54,0.02,3.68,0.00,22.37,26.17,30.04,14.58,49.45,1014.70,2032.10,2264.98,2238.02,2535.12,600.15,596.29,43.01,0000 0000 0000 0000 000000
2017-04-29 00:43:55,0.02,3.68,0.00,22.40,26.17,29.99,14.59,49.39,1014.69,2032.02,2264.46,2237.99,2534.98,600.11,596.17,43.06,0000 0000 0000 0000 000000
2017-04-29 00:48:56,0.06,3.69,0.00,22.44,26.17,30.03,14.55,49.37,1014.69,2032.02,2264.00,2237.41,2534.40,599.68,595.72,43.11,0000 0000 0000 0000 000000
2017-04-29 00:53:58,0.03,3.69,0.00,22.44,26.18,30.03,14.59,49.21,1014.71,2032.02,2263.62,2237.01,2534.01,600.05,596.15,43.16,0000 0000 0000 0000 000000
2017-04-29 00:58:59,0.06,3.69,0.00,22.45,26.20,30.09,14.50,49.36,1014.70,2032.01,2262.87,2236.58,2533.33,599.92,595.83,43.21,0000 0000 0000 0000 000000
2017-04-29 01:04:00,0.04,3.69,0.00,22.44,26.20,30.12,14.54,49.33,1014.68,2032.00,2262.03,2236.01,2532.92,599.81,595.79,43.26,0000 0000 0000 0000 000000
2017-04-29 01:09:01,0.09,3.70,0.00,22.46,26.20,30.11,14.54,49.33,1014.69,2032.00,2261.09,2235.37,2532.09,599.73,595.74,43.31,0000 0000 0000 0000 000000
2017-04-29 01:14:03,0.06,3.70,0.00,22.47,26.22,30.13,14.61,49.34,1014.69,2032.00,2260.16,2234.92,2531.36,600.18,596.16,43.36,0000 0000 0000 0000 000000
2017-04-29 01:19:04,0.05,3.70,0.00,22.49,26.22,30.12,14.57,49.40,1014.70,2032.00,2259.58,2234.21,2530.94,600.03,596.03,43.41,0000 0000 0000 0000 000000
2017-04-29 01:24:05,0.06,3.71,0.00,22.49,26.23,30.13,14.54,49.28,1014.71,2032.00,2258.55,2233.86,2530.13,600.03,595.97,43.46,0000 0000 0000 0000 000000
2017-04-29 01:29:06,0.07,3.71,0.00,22.51,26.25,30.20,14.55,49.33,1014.70,2032.00,2257.75,2233.07,2529.45,600.15,596.05,43.52,0000 0000 0000 0000 000000
2017-04-29 01:34:08,0.06,3.71,0.00,22.52,26.25,30.18,14.62,49.35,1014.69,2031.99,2256.81,2232.50,2528.90,600.24,595.97,43.57,0000 0000 0000 0000 000000
2017-04-29 01:39:09,0.05,3.72,0.00,22.54,26.27,30.12,14.63,49.38,1014.71,2031.99,2255.99,2231.98,2528.09,600.07,595.90,43.62,0000 0000 0000 0000 000000
2017-04-29 01:44:10,0.07,3.72,0.00,22.55,26.27,30.08,14.58,49.36,1014.70,2031.99,2255.14,2231.31,2527.72,600.11,595.90,43.67,0000 0000 0000 0000 000000
2017-04-29 01:49:11,0.05,3.72,0.00,22.57,26.28,30.18,14.56,49.19,1014.70,2031.99,2254.31,2230.88,2526.92,600.28,595.89,43.72,0000 0000 0000 0000 000000
2017-04-29 01:54:13,0.07,3.73,0.00,22.59,26.30,30.22,14.54,49.35,1014.69,2031.99,2253.63,2230.10,2526.08,599.88,595.59,43.77,0000 0000 0000 0000 000000
2017-04-29 01:59:14,0.05,3.73,0.00,22.60,26.30,30.20,14.65,49.39,1014.70,2031.98,2252.89,2229.69,2525.53,600.24,595.88,43.82,0000 0000 0000 0000 000000
2017-04-29 02:04:15,0.04,3.73,0.00,22.61,26.32,30.13,14.47,49.32,1014.74,2031.98,2252.08,2229.03,2524.99,599.79,595.60,43.87,0000 0000 0000 0000 000000
2017-04-29 02:09:17,0.07,3.73,0.00,22.61,26.32,30.13,14.58,49.31,1014.84,2031.97,2251.43,2228.72,2524.33,600.03,595.80,43.92,0000 0000 0000 0000 000000
2017-04-29 02:14:18,0.03,3.74,0.00,22.64,26.35,30.25,14.62,49.39,1015.05,2031.97,2250.77,2228.06,2523.90,600.34,596.05,43.97,0000 0000 0000 0000 000000
2017-04-29 02:19:19,0.06,3.74,0.00,22.67,26.35,30.22,14.55,49.27,1015.10,2031.95,2249.98,2227.70,2523.15,600.15,595.98,44.02,0000 0000 0000 0000 000000
2017-04-29 02:24:20,0.04,3.74,0.00,22.68,26.37,30.24,14.57,49.42,1015.13,2031.83,2249.16,2227.02,2522.55,600.05,595.68,44.07,0000 0000 0000 0000 000000
2017-04-29 02:29:22,0.04,3.74,0.00,22.68,26.37,30.14,14.57,49.38,1015.09,2031.76,2248.60,2226.66,2522.02,600.20,596.03,44.12,0000 0000 0000 0000 000000
2017-04-29 02:34:23,0.02,3.75,0.00,22.72,26.40,30.09,14.59,49.49,1015.01,2031.48,2247.86,2226.02,2521.39,600.14,595.88,44.17,0000 0000 0000 0000 000000
2017-04-29 02:39:24,0.04,3.75,0.00,22.74,26.40,30.09,14.60,49.47,1015.01,2031.30,2247.05,2225.50,2520.91,600.05,595.68,44.22,0000 0000 0000 0000 000000
2017-04-29 02:44:25,0.05,3.75,0.00,22.80,26.42,30.19,14.58,49.40,1015.02,2031.20,2246.29,2224.99,2520.09,599.90,595.49,44.27,0000 0000 0000 0000 000000
2017-04-29 02:49:27,0.05,3.75,0.00,23.05,26.44,30.18,14.60,49.33,1015.12,2031.09,2245.87,2224.33,2519.76,600.74,595.80,44.32,0000 0000 0000 0000 000000
2017-04-29 02:54:28,0.03,3.76,0.00,23.11,26.48,30.18,14.49,49.50,1015.12,2031.03,2245.22,2223.99,2519.08,600.18,595.13,44.37,0000 0000 0000 0000 000000
2017-04-29 02:59:29,0.08,3.76,0.00,23.33,26.51,30.18,14.46,49.48,1015.14,2031.00,2244.57,2223.29,2518.41,599.78,594.33,44.42,0000 0000 0000 0000 000000
2017-04-29 03:04:30,0.09,3.76,0.00,23.10,26.55,30.23,14.53,49.48,1015.14,2031.00,2243.57,2222.58,2517.58,599.72,594.57,44.48,0000 0000 0000 0000 000000
2017-04-29 03:09:32,0.06,3.77,0.00,22.95,26.57,30.39,14.51,49.51,1015.15,2031.00,2242.48,2221.96,2516.78,599.79,595.02,44.53,0000 0000 0000 0000 000000
2017-04-29 03:14:33,0.05,3.77,0.00,22.92,26.57,30.56,14.59,49.65,1015.15,2030.99,2241.79,2221.28,2516.05,600.30,595.74,44.58,0000 0000 0000 0000 000000
2017-04-29 03:19:34,0.03,3.77,0.00,22.93,26.58,30.46,14.57,49.60,1015.15,2030.97,2241.04,2220.98,2515.58,599.83,595.14,44.63,0000 0000 0000 0000 000000
2017-04-29 03:24:35,0.08,3.78,0.00,22.94,26.59,30.31,14.53,49.46,1015.14,2030.96,2240.32,2220.26,2514.96,600.12,595.41,44.68,0000 0000 0000 0000 000000
2017-04-29 03:29:37,0.07,3.78,0.00,22.92,26.60,30.35,14.50,49.51,1015.15,2030.92,2239.33,2219.65,2514.10,599.67,595.05,44.73,0000 0000 0000 0000 000000
2017-04-29 03:34:38,0.01,3.78,0.00,22.96,26.60,30.25,14.59,49.52,1015.14,2030.79,2238.94,2219.03,2513.79,600.01,595.30,44.78,0000 0000 0000 0000 000000
2017-04-29 03:39:40,0.01,3.78,0.00,23.26,26.61,30.17,14.55,49.38,1015.14,2030.77,2238.79,2218.99,2513.13,600.06,594.60,44.83,0000 0000 0000 0000 000000
2017-04-29 03:44:41,-0.01,3.78,0.00,23.26,26.63,30.23,14.43,49.49,1015.15,2030.32,2238.23,2218.63,2513.00,600.09,594.83,44.88,0000 0000 0000 0000 000000
2017-04-29 03:49:43,0.01,3.78,0.00,23.51,26.66,30.23,14.56,49.41,1015.15,2030.12,2238.00,2218.06,2512.81,600.28,594.49,44.93,0000 0000 0000 0000 000000
2017-04-29 03:54:44,0.04,3.78,0.00,23.59,26.69,30.28,14.45,49.34,1015.15,2030.03,2237.64,2217.84,2512.04,599.68,593.61,44.98,0000 0000 0000 0000 000000
2017-04-29 03:59:46,0.04,3.79,0.00,23.42,26.71,30.32,14.44,49.43,1015.15,2030.01,2237.01,2217.14,2511.82,599.83,594.16,45.03,0000 0000 0000 0000 000000
2017-04-29 04:04:47,0.04,3.79,0.00,23.26,26.72,30.51,14.54,49.45,1015.14,2030.00,2236.43,2216.99,2511.10,600.06,594.59,45.08,0000 0000 0000 0000 000000
2017-04-29 04:09:49,0.05,3.79,0.00,23.19,26.72,30.63,14.48,49.38,1015.14,2030.00,2235.91,2216.56,2510.77,599.77,594.60,45.13,0000 0000 0000 0000 000000
2017-04-29 04:14:50,0.04,3.79,0.00,23.14,26.72,30.51,14.54,49.52,1015.13,2030.00,2235.34,2216.02,2510.09,599.81,594.81,45.18,0000 0000 0000 0000 000000
2017-04-29 04:19:51,0.00,3.79,0.00,23.25,26.72,30.38,14.56,49.42,1015.11,2030.00,2235.01,2216.00,2510.00,600.24,594.93,45.23,0000 0000 0000 0000 000000
2017-04-29 04:24:52,0.00,3.79,0.00,23.46,26.75,30.33,14.53,49.38,1015.13,2030.00,2235.00,2215.97,2509.99,600.24,594.55,45.28,0000 0000 0000 0000 000000
2017-04-29 04:29:53,0.04,3.80,0.00,23.46,26.76,30.27,14.49,49.48,1015.14,2030.00,2234.69,2215.49,2509.50,599.92,594.09,45.33,0000 0000 0000 0000 000000
2017-04-29 04:34:55,0.04,3.80,0.00,23.82,26.78,30.28,14.39,49.32,1015.15,2030.00,2234.22,2215.05,2509.07,599.20,592.86,45.39,0000 0000 0000 0000 000000
2017-04-29 04:39:56,0.00,3.80,0.00,23.93,26.80,30.32,14.48,49.32,1015.15,2029.98,2234.01,2215.00,2508.99,600.21,593.52,45.44,0000 0000 0000 0000 000000
2017-04-29 04:44:57,0.08,3.80,0.00,23.95,26.82,30.37,14.39,49.32,1015.15,2029.96,2233.48,2214.57,2508.46,599.47,592.72,45.49,0000 0000 0000 0000 000000
2017-04-29 04:49:59,0.02,3.80,0.00,24.03,26.84,30.39,14.40,49.29,1015.15,2029.93,2232.86,2214.01,2507.98,599.86,593.07,45.54,0000 0000 0000 0000 000000
2017-04-29 04:55:00,0.04,3.81,0.00,24.07,26.85,30.40,14.43,49.30,1015.15,2029.93,2232.16,2213.92,2507.52,599.77,592.80,45.59,0000 0000 0000 0000 000000
2017-04-29 05:00:01,0.02,3.81,0.00,23.93,26.85,30.41,14.49,49.35,1015.15,2029.80,2232.00,2213.21,2507.02,599.87,592.99,45.64,0000 0000 0000 0000 000000
2017-04-29 05:05:02,-0.01,3.81,0.00,23.62,26.85,30.39,14.48,49.32,1015.15,2029.68,2231.74,2213.01,2506.99,600.30,594.23,45.69,0000 0000 0000 0000 000000
2017-04-29 05:10:03,0.03,3.81,0.00,23.45,26.85,30.50,14.46,49.47,1015.15,2029.48,2231.02,2212.99,2506.34,599.79,594.24,45.74,0000 0000 0000 0000 000000
2017-04-29 05:15:05,0.03,3.81,0.00,23.37,26.85,30.59,14.54,49.40,1015.15,2029.43,2230.69,2212.57,2506.03,600.01,594.38,45.79,0000 0000 0000 0000 000000
2017-04-29 05:20:06,0.04,3.81,0.00,23.37,26.83,30.45,14.44,49.28,1015.15,2029.40,2230.09,2212.06,2505.94,600.04,594.48,45.84,0000 0000 0000 0000 000000
2017-04-29 05:25:07,0.01,3.81,0.00,23.55,26.82,30.45,14.54,49.40,1015.15,2029.52,2229.98,2212.00,2505.50,600.16,594.21,45.89,0000 0000 0000 0000 000000
2017-04-29 05:30:08,0.05,3.81,0.00,23.57,26.82,30.26,14.46,49.42,1015.15,2029.50,2229.64,2211.92,2505.02,599.78,593.88,45.94,0000 0000 0000 0000 000000
2017-04-29 05:35:10,0.01,3.82,0.00,23.60,26.83,30.21,14.40,49.48,1015.15,2029.40,2229.10,2211.37,2504.99,599.81,593.79,45.99,0000 0000 0000 0000 000000
2017-04-29 05:40:11,-0.00,3.82,0.00,23.87,26.85,30.26,14.43,49.43,1015.15,2029.18,2229.00,2211.01,2504.74,600.07,593.50,46.04,0000 0000 0000 0000 000000
2017-04-29 05:45:12,0.00,3.82,0.00,23.92,26.86,30.33,14.44,49.52,1015.15,2029.09,2228.93,2211.00,2504.09,599.79,593.04,46.09,0000 0000 0000 0000 000000
2017-04-29 05:50:13,0.03,3.82,0.00,24.03,26.87,30.39,14.41,49.49,1015.15,2029.08,2228.16,2210.89,2504.00,600.18,593.34,46.14,0000 0000 0000 0000 000000
2017-04-29 05:55:15,0.02,3.82,0.00,24.04,26.87,30.39,14.41,49.44,1015.15,2029.07,2227.99,2210.27,2503.94,599.66,592.79,46.19,0000 0000 0000 0000 000000
2017-04-29 06:00:16,0.04,3.82,0.00,24.10,26.89,30.39,14.35,49.29,1015.16,2029.04,2227.65,2210.00,2503.29,599.85,592.83,46.25,0000 0000 0000 0000 000000
2017-04-29 06:05:17,0.01,3.82,0.00,24.13,26.90,30.41,14.45,49.39,1015.15,2029.03,2227.03,2209.98,2503.01,600.13,593.13,46.30,0000 0000 0000 0000 000000
2017-04-29 06:10:19,0.08,3.82,0.00,24.15,26.90,30.40,14.45,49.27,1015.15,2029.03,2226.55,2209.45,2502.55,600.10,592.93,46.35,0000 0000 0000 0000 000000
2017-04-29 06:15:20,0.08,3.83,0.00,24.21,26.90,30.40,14.41,49.27,1015.15,2029.01,2225.37,2208.66,2501.68,599.82,592.71,46.40,0000 0000 0000 0000 000000
2017-04-29 06:20:21,0.06,3.83,0.00,24.26,26.90,30.40,14.35,49.30,1015.15,2029.01,2224.34,2207.97,2500.87,599.84,592.58,46.45,0000 0000 0000 0000 000000
2017-04-29 06:25:23,0.09,3.84,0.00,24.28,26.90,30.41,14.37,49.28,1015.15,2029.06,2223.31,2207.16,2500.04,600.07,592.72,46.50,0000 0000 0000 0000 000000
2017-04-29 06:30:24,0.09,3.84,0.00,24.24,26.90,30.39,14.44,49.36,1015.15,2029.07,2222.13,2206.46,2499.14,600.30,592.99,46.55,0000 0000 0000 0000 000000
2017-04-29 06:35:25,0.02,3.84,0.00,24.26,26.89,30.37,14.49,49.29,1015.15,2029.03,2221.79,2206.02,2498.97,600.28,593.06,46.60,0000 0000 0000 0000 000000
2017-04-29 06:40:26,0.05,3.85,0.00,24.13,26.87,30.36,14.45,49.30,1015.15,2029.05,2221.03,2205.76,2498.33,600.13,593.03,46.65,0000 0000 0000 0000 000000
2017-04-29 06:45:27,0.07,3.85,0.00,23.83,26.87,30.35,14.46,49.43,1015.15,2029.04,2220.07,2205.02,2497.54,599.89,593.38,46.70,0000 0000 0000 0000 000000
2017-04-29 06:50:29,0.05,3.85,0.00,23.70,26.85,30.34,14.50,49.38,1015.15,2029.04,2219.28,2204.78,2497.01,600.13,593.85,46.75,0000 0000 0000 0000 000000
2017-04-29 06:55:30,0.08,3.86,0.00,23.88,26.84,30.33,14.49,49.45,1015.15,2029.13,2218.62,2204.05,2496.58,600.09,593.53,46.80,0000 0000 0000 0000 000000
2017-04-29 07:00:31,0.07,3.86,0.00,23.74,26.83,30.22,14.48,49.47,1015.13,2029.08,2217.54,2203.47,2495.86,600.16,593.75,46.85,0000 0000 0000 0000 000000
2017-04-29 07:05:32,0.06,3.86,0.00,23.88,26.82,30.24,14.44,49.52,1015.05,2029.17,2216.75,2202.91,2495.06,599.54,592.91,46.90,0000 0000 0000 0000 000000
2017-04-29 07:10:33,0.07,3.87,0.00,24.08,26.82,30.27,14.45,49.31,1015.10,2029.22,2215.89,2202.11,2494.61,600.44,593.41,46.95,0000 0000 0000 0000 000000
2017-04-29 07:15:35,0.05,3.87,0.00,24.08,26.83,30.29,14.47,49.32,1015.15,2029.24,2215.04,2201.75,2494.00,599.91,592.93,47.00,0000 0000 0000 0000 000000
2017-04-29 07:20:37,0.06,3.87,0.00,24.08,26.84,30.32,14.39,49.42,1015.15,2029.14,2214.18,2201.06,2493.32,600.20,593.21,47.05,0000 0000 0000 0000 000000
2017-04-29 07:25:38,-0.00,3.88,0.00,24.12,26.84,30.31,14.40,49.40,1015.15,2029.08,2213.99,2201.00,2493.00,600.36,593.46,47.10,0000 0000 0000 0000 000000
2017-04-29 07:30:40,0.02,3.88,0.00,24.19,26.85,30.32,14.47,49.30,1015.15,2029.13,2213.74,2200.91,2492.99,600.14,592.91,47.15,0000 0000 0000 0000 000000
2017-04-29 07:35:41,0.06,3.88,0.00,24.19,26.85,30.33,14.46,49.49,1015.15,2029.07,2213.05,2200.20,2492.38,599.75,592.56,47.21,0000 0000 0000 0000 000000
2017-04-29 07:40:42,0.01,3.88,0.00,24.19,26.85,30.33,14.43,49.27,1015.15,2029.08,2212.92,2200.01,2492.02,600.25,592.97,47.26,0000 0000 0000 0000 000000
2017-04-29 07:45:44,0.04,3.88,0.00,24.24,26.85,30.33,14.46,49.55,1015.15,2029.14,2212.15,2199.98,2491.96,600.00,592.72,47.31,0000 0000 0000 0000 000000
2017-04-29 07:50:45,0.05,3.88,0.00,24.25,26.84,30.34,14.48,49.36,1015.15,2029.13,2211.96,2199.45,2491.28,600.24,592.89,47.36,0000 0000 0000 0000 000000
2017-04-29 07:55:46,0.03,3.89,0.00,24.22,26.83,30.33,14.39,49.27,1015.15,2029.17,2211.72,2199.02,2491.02,599.96,592.68,47.41,0000 0000 0000 0000 000000
2017-04-29 08:00:48,0.03,3.89,0.00,24.27,26.82,30.33,14.42,49.36,1015.15,2029.33,2211.04,2198.99,2490.98,600.06,592.56,47.46,0000 0000 0000 0000 000000
2017-04-29 08:05:49,0.02,3.89,0.00,24.30,26.82,30.34,14.42,49.34,1015.15,2029.33,2210.99,2198.87,2490.57,600.17,592.65,47.51,0000 0000 0000 0000 000000
2017-04-29 08:10:50,0.03,3.89,0.00,24.21,26.82,30.31,14.34,49.26,1015.16,2029.33,2210.60,2198.23,2490.04,599.94,592.79,47.56,0000 0000 0000 0000 000000
2017-04-29 08:15:51,0.02,3.89,0.00,24.24,26.82,30.32,14.34,49.32,1015.16,2029.27,2210.07,2198.01,2490.00,599.94,592.67,47.61,0000 0000 0000 0000 000000
2017-04-29 08:20:52,0.01,3.89,0.00,24.22,26.82,30.31,14.36,49.29,1015.18,2029.32,2209.97,2197.99,2489.87,599.84,592.63,47.66,0000 0000 0000 0000 000000
2017-04-29 08:25:54,0.04,3.89,0.00,24.19,26.80,30.29,14.45,49.35,1015.19,2029.33,2209.58,2197.97,2489.26,599.83,592.66,47.71,0000 0000 0000 0000 000000
2017-04-29 08:30:55,0.05,3.90,0.00,24.25,26.80,30.29,14.37,49.22,1015.20,2029.46,2209.05,2197.58,2489.03,599.45,592.29,47.76,0000 0000 0000 0000 000000
2017-04-29 08:35:56,0.02,3.90,0.00,24.24,26.80,30.28,14.39,49.14,1015.20,2029.62,2209.00,2197.11,2489.00,600.37,593.06,47.81,0000 0000 0000 0000 000000
2017-04-29 08:40:58,0.03,3.90,0.00,24.25,26.80,30.27,14.47,49.19,1015.21,2029.75,2208.97,2197.03,2489.00,600.20,592.90,47.86,0000 0000 0000 0000 000000
2017-04-29 08:45:59,0.02,3.90,0.00,24.26,26.80,30.26,14.45,49.23,1015.22,2029.71,2208.42,2196.99,2488.74,600.12,592.86,47.91,0000 0000 0000 0000 000000
2017-04-29 08:51:00,0.01,3.90,0.00,24.23,26.78,30.23,14.46,49.31,1015.21,2029.72,2208.02,2196.98,2488.11,600.04,592.87,47.96,0000 0000 0000 0000 000000
2017-04-29 08:56:02,0.03,3.90,0.00,24.26,26.77,30.22,14.41,49.22,1015.16,2029.82,2207.99,2196.68,2488.01,599.99,592.66,48.01,0000 0000 0000 0000 000000
2017-04-29 09:01:03,0.04,3.91,0.00,24.30,26.77,30.22,14.38,49.27,1015.16,2029.81,2207.54,2196.13,2488.00,600.03,592.65,48.06,0000 0000 0000 0000 000000
2017-04-29 09:06:04,0.03,3.91,0.00,24.24,26.77,30.21,14.47,49.23,1015.18,2029.86,2207.03,2196.00,2487.67,600.17,592.86,48.12,0000 0000 0000 0000 000000
2017-04-29 09:11:06,0.01,3.91,0.00,24.28,26.76,30.20,14.41,49.23,1015.17,2029.94,2206.93,2195.99,2487.15,599.84,592.51,48.17,0000 0000 0000 0000 000000
2017-04-29 09:16:07,0.02,3.91,0.00,24.23,26.75,30.18,14.39,49.25,1015.18,2029.96,2206.42,2195.97,2487.01,599.90,592.64,48.22,0000 0000 0000 0000 000000
2017-04-29 09:21:08,0.03,3.91,0.00,24.23,26.75,30.19,14.37,49.19,1015.22,2029.98,2206.02,2195.50,2486.97,599.86,592.71,48.27,0000 0000 0000 0000 000000
2017-04-29 09:26:10,0.03,3.91,0.00,24.16,26.75,30.18,14.37,49.23,1015.18,2029.96,2205.86,2195.04,2486.55,599.80,592.62,48.32,0000 0000 0000 0000 000000
2017-04-29 09:31:11,0.03,3.92,0.00,24.21,26.73,30.18,14.41,49.27,1015.18,2029.97,2205.18,2195.00,2486.03,600.04,592.81,48.37,0000 0000 0000 0000 000000
2017-04-29 09:36:12,0.00,3.92,0.00,24.23,26.72,30.16,14.36,49.27,1015.17,2029.97,2205.00,2194.98,2486.00,599.87,592.54,48.42,0000 0000 0000 0000 000000
2017-04-29 09:41:13,0.02,3.92,0.00,24.25,26.72,30.17,14.44,49.25,1015.16,2029.98,2204.94,2194.78,2485.96,600.51,593.20,48.47,0000 0000 0000 0000 000000
2017-04-29 09:46:15,0.07,3.92,0.00,24.24,26.72,30.16,14.40,49.33,1015.16,2029.98,2204.15,2194.07,2485.24,600.06,592.86,48.52,0000 0000 0000 0000 000000
2017-04-29 09:51:16,0.00,3.92,0.00,24.25,26.72,30.15,14.32,49.20,1015.16,2029.97,2204.00,2194.00,2485.01,599.79,592.50,48.57,0000 0000 0000 0000 000000
2017-04-29 09:56:17,0.01,3.92,0.00,24.28,26.70,30.14,14.32,49.23,1015.16,2029.99,2203.86,2193.99,2485.00,599.80,592.37,48.62,0000 0000 0000 0000 000000
2017-04-29 10:01:19,0.03,3.92,0.00,24.25,26.70,30.15,14.38,49.23,1015.18,2029.99,2203.19,2193.86,2484.81,599.86,592.56,48.67,0000 0000 0000 0000 000000
2017-04-29 10:06:20,0.04,3.93,0.00,24.27,26.70,30.14,14.42,49.18,1015.16,2029.99,2203.00,2193.22,2484.12,600.32,592.94,48.72,0000 0000 0000 0000 000000
2017-04-29 10:11:21,0.01,3.93,0.00,24.23,26.70,30.14,14.40,49.36,1015.15,2029.99,2202.80,2193.02,2484.00,599.92,592.57,48.77,0000 0000 0000 0000 000000
2017-04-29 10:16:23,0.02,3.93,0.00,24.26,26.68,30.15,14.39,49.20,1015.15,2029.99,2202.11,2192.99,2483.90,599.88,592.54,48.82,0000 0000 0000 0000 000000
2017-04-29 10:21:24,0.02,3.93,0.00,24.28,26.67,30.13,14.38,49.13,1015.16,2029.99,2201.98,2192.88,2483.33,599.95,592.56,48.87,0000 0000 0000 0000 000000
2017-04-29 10:26:25,0.06,3.93,0.00,24.19,26.67,30.12,14.43,49.30,1015.15,2029.99,2201.47,2192.35,2483.02,600.16,592.80,48.92,0000 0000 0000 0000 000000
2017-04-29 10:31:26,0.01,3.93,0.00,24.22,26.67,30.13,14.39,49.28,1015.16,2029.99,2201.03,2192.03,2483.00,599.98,592.73,48.97,0000 0000 0000 0000 000000
2017-04-29 10:36:27,0.02,3.93,0.00,24.24,26.65,30.12,14.33,49.23,1015.15,2029.99,2200.82,2192.00,2482.71,599.99,592.54,49.03,0000 0000 0000 0000 000000
2017-04-29 10:41:29,0.03,3.94,0.00,24.24,26.65,30.11,14.44,49.39,1015.15,2030.00,2200.14,2191.90,2482.06,600.01,592.85,49.08,0000 0000 0000 0000 000000
2017-04-29 10:46:30,0.03,3.94,0.00,24.21,26.65,30.10,14.42,49.38,1015.15,2030.00,2199.99,2191.34,2482.00,600.05,592.82,49.13,0000 0000 0000 0000 000000
2017-04-29 10:51:31,0.01,3.94,0.00,24.21,26.65,30.09,14.33,49.28,1015.15,2030.00,2199.81,2191.03,2481.94,599.48,592.54,49.18,0000 0000 0000 0000 000000
2017-04-29 10:56:33,0.04,3.94,0.00,24.25,26.63,30.09,14.32,49.27,1015.15,2030.00,2199.06,2191.00,2481.17,599.50,592.15,49.23,0000 0000 0000 0000 000000
2017-04-29 11:01:34,0.01,3.94,0.00,24.23,26.62,30.08,14.42,49.33,1015.15,2030.00,2198.92,2190.87,2481.00,600.17,592.93,49.28,0000 0000 0000 0000 000000
2017-04-29 11:06:35,0.06,3.94,0.00,24.16,26.62,30.08,14.39,49.14,1015.15,2030.01,2198.12,2190.19,2480.93,599.77,592.67,49.33,0000 0000 0000 0000 000000
2017-04-29 11:11:37,0.02,3.95,0.00,24.01,26.62,30.09,14.44,49.28,1015.13,2030.03,2197.99,2190.01,2480.39,600.13,593.26,49.38,0000 0000 0000 0000 000000
2017-04-29 11:16:38,0.03,3.95,0.00,23.70,26.60,30.10,14.42,49.24,1015.13,2030.04,2197.28,2189.98,2480.01,599.74,593.50,49.43,0000 0000 0000 0000 000000
2017-04-29 11:21:39,0.02,3.95,0.00,23.53,26.60,30.09,14.53,49.38,1015.12,2030.03,2196.96,2189.72,2479.91,599.60,593.59,49.48,0000 0000 0000 0000 000000
2017-04-29 11:26:40,0.07,3.95,0.00,23.45,26.57,30.17,14.52,49.48,1015.10,2030.06,2196.36,2189.11,2479.28,600.05,594.27,49.53,0000 0000 0000 0000 000000
2017-04-29 11:31:42,0.01,3.95,0.00,23.42,26.57,30.25,14.52,49.27,1015.11,2030.10,2196.00,2189.01,2479.01,600.24,594.58,49.58,0000 0000 0000 0000 000000
2017-04-29 11:36:43,0.01,3.95,0.00,23.40,26.55,30.24,14.46,49.29,1015.07,2030.10,2195.78,2188.99,2478.97,599.81,594.07,49.63,0000 0000 0000 0000 000000
2017-04-29 11:41:44,0.04,3.95,0.00,23.61,26.55,30.16,14.38,49.24,1015.08,2030.10,2195.06,2188.88,2478.55,599.92,593.84,49.68,0000 0000 0000 0000 000000
2017-04-29 11:46:46,0.04,3.96,0.00,23.47,26.55,30.03,14.46,49.45,1015.10,2030.14,2195.00,2188.21,2478.06,599.92,594.21,49.73,0000 0000 0000 0000 000000
2017-04-29 11:51:47,0.01,3.96,0.00,23.63,26.57,30.06,14.43,49.32,1015.12,2030.11,2194.83,2188.00,2477.99,600.30,594.18,49.78,0000 0000 0000 0000 000000
2017-04-29 11:56:48,0.03,3.96,0.00,23.82,26.57,30.10,14.41,49.20,1015.11,2030.10,2194.08,2187.99,2477.60,599.93,593.26,49.83,0000 0000 0000 0000 000000
2017-04-29 12:01:49,0.04,3.96,0.00,23.88,26.59,30.15,14.40,49.29,1015.11,2030.08,2193.98,2187.47,2477.06,599.48,593.09,49.88,0000 0000 0000 0000 000000
2017-04-29 12:06:51,0.04,3.96,0.00,23.97,26.60,30.17,14.47,49.16,1015.06,2030.08,2193.27,2187.03,2476.97,600.36,593.42,49.93,0000 0000 0000 0000 000000
2017-04-29 12:11:52,0.02,3.96,0.00,24.02,26.61,30.17,14.42,49.36,1015.04,2030.02,2192.97,2186.96,2476.36,600.06,593.13,49.99,0000 0000 0000 0000 000000
2017-04-29 12:16:53,0.07,3.97,0.00,23.97,26.62,30.18,14.47,49.28,1015.02,2030.00,2192.29,2186.23,2476.00,600.15,593.29,50.04,0000 0000 0000 0000 000000
2017-04-29 12:21:54,0.02,3.97,0.00,23.74,26.62,30.18,14.41,49.22,1014.79,2030.04,2191.99,2186.01,2475.72,599.88,593.32,50.09,0000 0000 0000 0000 000000
2017-04-29 12:26:55,0.04,3.97,0.00,23.50,26.62,30.17,14.50,49.40,1014.75,2030.03,2191.25,2185.94,2475.03,599.99,593.91,50.14,0000 0000 0000 0000 000000
2017-04-29 12:31:57,0.05,3.97,0.00,23.38,26.62,30.23,14.47,49.31,1014.85,2030.02,2190.86,2185.18,2474.90,599.90,594.10,50.19,0000 0000 0000 0000 000000
2017-04-29 12:36:58,0.04,3.98,0.00,23.32,26.60,30.36,14.41,49.40,1014.82,2030.02,2190.02,2184.95,2474.16,599.74,594.02,50.24,0000 0000 0000 0000 000000
2017-04-29 12:41:59,0.09,3.98,0.00,23.28,26.60,30.31,14.51,49.41,1014.73,2030.03,2189.07,2184.12,2473.31,600.13,594.41,50.29,0000 0000 0000 0000 000000
2017-04-29 12:47:01,0.03,3.98,0.00,23.27,26.58,30.30,14.51,49.38,1014.72,2030.02,2188.36,2183.98,2472.98,599.94,594.36,50.34,0000 0000 0000 0000 000000
2017-04-29 12:52:02,0.06,3.99,0.00,23.40,26.57,30.24,14.46,49.28,1014.70,2030.01,2187.99,2183.29,2472.32,599.82,593.97,50.39,0000 0000 0000 0000 000000
2017-04-29 12:57:03,0.08,3.99,0.00,23.42,26.57,30.13,14.51,49.51,1014.70,2030.08,2187.20,2182.72,2471.71,600.24,594.25,50.44,0000 0000 0000 0000 000000